This demonstration page uses our WeatherBlox Daily Observations layout. Learn more.

Left ArrowRight Arrow

41.12389, -100.76542

Hourly Observations for July 20, 2018

Temp ( °F °C ) Dew Point ( °F °C ) Humidity (%) Winds ( mph kmh ) Pressure ( in mb ) Visibility ( mi km ) Precip ( " mm )
12:53 am 00:53 Clear 71 21.7 70 21.1 96 96 Calm 29.88 1012 10 16 0.00 0.00
1:53 am 01:53 Clear 71 21.7 69 20.6 94 94 E 6 9 29.88 1012 10 16 0.00 0.00
2:53 am 02:53 Clear 70 21.1 68 20 93 93 E 7 11 29.87 1012 10 16 0.00 0.00
3:53 am 03:53 Clear 69 20.6 68 20 96 96 Calm 29.87 1012 10 16 0.00 0.00
4:53 am 04:53 Clear 68 20 67 19.4 96 96 Calm 29.87 1011 10 16 0.00 0.00
5:53 am 05:53 Clear 67 19.4 67 19.4 100 100 Calm 29.86 1011 10 16 0.00 0.00
6:53 am 06:53 Sunny 67 19.4 67 19.4 100 100 Calm 29.87 1012 10 16 0.00 0.00
7:53 am 07:53 Sunny 72 22.2 70 21.1 94 94 E 3 6 29.87 1012 10 16 0.00 0.00
8:53 am 08:53 Sunny 77 25 72 22.2 85 85 SSE 6 9 29.88 1012 10 16 0.00 0.00
9:53 am 09:53 Sunny 81 27.2 73 22.8 77 77 Calm 29.91 1013 10 16 0.00 0.00
10:53 am 10:53 Sunny 83 28.3 74 23.3 74 74 SE 5 7 29.91 1013 10 16 0.00 0.00
11:53 am 11:53 Mostly Cloudy 86 30 74 23.3 67 67 Calm 29.92 1013 10 16 0.00 0.00
12:53 pm 12:53 Cloudy 87 30.6 73 22.8 63 63 E 6 9 29.93 1013 10 16 0.00 0.00
1:53 pm 13:53 Partly Cloudy 87 30.6 71 21.7 59 59 ESE 3 6 29.93 1013 10 16 0.00 0.00
2:53 pm 14:53 Sunny 91 32.8 71 21.7 52 52 SSE 7 11 29.91 1013 10 16 0.00 0.00
3:53 pm 15:53 Sunny 91 32.8 71 21.7 52 52 SE 9 15 29.90 1013 10 16 0.00 0.00
4:53 pm 16:53 Sunny 92 33.3 71 21.7 51 51 SE 9 15 29.90 1013 10 16 0.00 0.00
5:53 pm 17:53 Sunny 91 32.8 72 22.2 54 54 SE 10 17 29.91 1013 10 16 0.00 0.00
6:53 pm 18:53 Sunny 89 31.7 73 22.8 59 59 SSE 10 17 29.92 1013 10 16 0.00 0.00
7:53 pm 19:53 Sunny 86 30 70 21.1 59 59 SE 8 13 29.92 1013 10 16 0.00 0.00
8:53 pm 20:53 Sunny 79 26.1 71 21.7 77 77 SE 8 13 29.93 1014 10 16 0.00 0.00
9:53 pm 21:53 Clear 75 23.9 71 21.7 88 88 ESE 10 17 29.95 1014 10 16 0.00 0.00
10:53 pm 22:53 Clear 73 22.8 72 22.2 96 96 ESE 8 13 29.98 1015 10 16 0.00 0.00
11:53 pm 23:53 Clear 71 21.7 71 21.7 100 100 ESE 6 9 29.99 1016 10 16 0.00 0.00

Powered by AerisWeather